Amateur Radio Satellites - All Passes

Search period start: 19 June 2013 13:53
Search period end: 20 June 2013 13:53
Location: Los Gatos B&B, 42.6926°N, 77.0646°W

Satellite Date Start Highest point End Downlink Frequencies (MHz)
Time Altitude Azimuth
RS-15 19 Jun 13:58:05 14:09:30 50° 317° (NW) 14:20:29 29.354 - 29.394 USB, Beacon 29.352 USB
Uosat F 19 Jun 14:13:24 14:15:33 13° 58° (ENE) 14:17:41 435.120 FM
Oscar 19 19 Jun 14:27:13 14:32:20 62° 259° (WSW) 14:37:28 437.125 CW, 437.150 USB
UOSAT-12 19 Jun 14:42:19 14:45:02 16° 251° (WSW) 14:47:45 437.025 FM, 437.400 FM
Gurwin Techsat 1B 19 Jun 14:50:50 14:55:10 26° 65° (ENE) 14:59:32 435.225 FM
ITAMSAT 1 19 Jun 14:52:36 14:57:34 45° 261° (W) 15:02:35 435.822 SSB
AO-27 19 Jun 14:53:48 14:58:44 43° 261° (W) 15:03:43 436.795 MHz FM
Oscar 16 19 Jun 15:14:01 15:17:51 21° 267° (W) 15:21:42 437.025 USB, Beacon 2401.1428
Uribyol 2 19 Jun 15:27:28 15:31:25 22° 267° (W) 15:35:24 436.500 FM
AO-Echo 19 Jun 15:29:31 15:34:05 52° 260° (W) 15:38:47 ?
AO-7 19 Jun 15:33:32 15:40:18 29° 55° (NE) 15:47:05 29.400 - 29.500 MHz
ISS 19 Jun 15:44:44 15:47:35 27° 136° (SE) 15:50:25 145.800 FM
Uosat F 19 Jun 15:48:36 15:53:37 88° 256° (WSW) 15:58:41 435.120 FM
TMSAT-1 19 Jun 15:49:05 15:54:16 58° 72° (ENE) 15:59:29 436.925 FM
KITSAT 1 19 Jun 16:13:04 16:18:08 18° 101° (E) 16:23:12 435.175 FM
RS-15 19 Jun 16:16:38 16:25:33 24° 349° (NNW) 16:34:12 29.354 - 29.394 USB, Beacon 29.352 USB
Gurwin Techsat 1B 19 Jun 16:29:54 16:34:55 43° 262° (W) 16:39:59 435.225 FM
ISS 19 Jun 17:21:01 17:24:09 41° 334° (NNW) 17:27:18 145.800 FM
AO-7 19 Jun 17:24:05 17:32:24 72° 254° (WSW) 17:40:47 29.400 - 29.500 MHz
TMSAT-1 19 Jun 17:30:56 17:34:35 19° 269° (W) 17:38:15 436.925 FM
KITSAT 1 19 Jun 18:04:18 18:12:22 87° 120° (ESE) 18:20:32 435.175 FM
AO-40 19 Jun 18:04:54 02:06:24 43° 178° (S) 08:01:17 Beacon 2401.320
STRAND 1 19 Jun 18:13:59 18:15:52 12° 88° (E) 18:17:44 ?
JAS-1B 19 Jun 18:19:58 18:24:47 22° 62° (ENE) 18:29:12 435.800 - 435.900 CW/SSB
RS-15 19 Jun 18:33:26 18:42:55 30° 24° (NNE) 18:52:07 29.354 - 29.394 USB, Beacon 29.352 USB
Hamsat 19 Jun 18:46:05 18:50:07 38° 71° (ENE) 18:54:11 145.90 MHz
ISS 19 Jun 18:59:08 19:01:28 18° 353° (N) 19:03:49 145.800 FM
AO-7 19 Jun 19:22:55 19:26:35 13° 273° (W) 19:30:17 29.400 - 29.500 MHz
SO-67 19 Jun 19:27:19 19:30:28 30° 71° (ENE) 19:33:38 435.3500 MHz FM
MaSat-1 19 Jun 19:37:57 19:43:15 43° 113° (ESE) 19:47:26 437.345 MHz
STRAND 1 19 Jun 19:50:31 19:55:42 84° 285° (WNW) 20:00:52 ?
KITSAT 1 19 Jun 20:02:06 20:08:49 28° 323° (NW) 20:15:35 435.175 FM
JAS-1B 19 Jun 20:08:11 20:15:08 63° 258° (WSW) 20:21:07 435.800 - 435.900 CW/SSB
Hamsat 19 Jun 20:23:08 20:26:19 20° 268° (W) 20:29:33 145.90 MHz
JAS-2 19 Jun 20:24:51 20:30:12 23° 62° (ENE) 20:35:10 435.800 - 435.900 CW/SSB, 435.910 FM
HO-68 19 Jun 20:29:07 20:35:13 32° 60° (ENE) 20:41:19 435.675 MHz FM
ISS 19 Jun 20:36:24 20:39:01 21° 14° (NNE) 20:41:37 145.800 FM
RS-15 19 Jun 20:46:23 20:57:32 75° 53° (NE) 21:08:24 29.354 - 29.394 USB, Beacon 29.352 USB
SO-67 19 Jun 21:01:37 21:03:59 17° 267° (W) 21:06:21 435.3500 MHz FM
Saudisat 1A 19 Jun 21:11:35 21:12:10 10° 106° (ESE) 21:12:45 436.775 MHz
MaSat-1 19 Jun 21:21:00 21:25:06 23° 303° (WNW) 21:28:29 437.345 MHz
OPAL 19 Jun 21:25:41 21:28:09 14° 57° (ENE) 21:30:37 ?
STRAND 1 19 Jun 21:32:14 21:34:05 12° 303° (WNW) 21:35:56 ?
Oscar 11 19 Jun 22:03:24 22:07:45 77° 76° (ENE) 22:12:09 145.825 FM, Beacon 2401.500 USB
KITSAT 1 19 Jun 22:04:01 22:07:37 13° 352° (N) 22:11:12 435.175 FM
JAS-2 19 Jun 22:07:21 22:14:46 73° 257° (WSW) 22:21:24 435.800 - 435.900 CW/SSB, 435.910 FM
ISS 19 Jun 22:12:48 22:16:06 78° 33° (NNE) 22:19:23 145.800 FM
HO-68 19 Jun 22:15:36 22:22:33 55° 259° (WSW) 22:29:35 435.675 MHz FM
Saudisat 1A 19 Jun 22:46:32 22:51:07 90° 123° (ESE) 22:55:45 436.775 MHz
RS-15 19 Jun 22:59:50 23:08:48 31° 256° (WSW) 23:17:43 29.354 - 29.394 USB, Beacon 29.352 USB
OPAL 19 Jun 23:01:21 23:06:24 83° 254° (WSW) 23:11:25 ?
ISS 19 Jun 23:50:43 23:52:23 13° 229° (SW) 23:54:02 145.800 FM
JAS-2 19 Jun 23:57:59 00:00:35 12° 273° (W) 00:03:07 435.800 - 435.900 CW/SSB, 435.910 FM
KITSAT 1 20 Jun 00:01:54 00:07:06 18° 24° (NNE) 00:12:17 435.175 FM
PCSat 20 Jun 00:18:35 00:22:52 25° 108° (ESE) 00:27:11 145.825 MHz
Oscar 10/S400 20 Jun 00:24:57 07:26:03 64° 136° (SE) 10:45:37 145.825 - 145.975 CW/USB, Beacon 145.810 USB
Saudisat 1A 20 Jun 00:28:36 00:31:28 16° 323° (NW) 00:34:21 436.775 MHz
Sapphire 20 Jun 00:52:09 00:57:15 45° 113° (ESE) 01:02:24 437.095 MHz 1200 baud AX-25 AFSK
SO-50 20 Jun 01:36:04 01:40:47 66° 121° (ESE) 01:45:27 436.795 FM
Oscar 16 20 Jun 01:45:31 01:48:42 16° 91° (E) 01:51:51 437.025 USB, Beacon 2401.1428
KITSAT 1 20 Jun 01:56:51 02:04:44 50° 49° (NE) 02:12:34 435.175 FM
Uribyol 2 20 Jun 02:00:00 02:03:14 16° 91° (E) 02:06:27 436.500 FM
PCSat 20 Jun 02:00:43 02:05:58 50° 306° (NW) 02:11:16 145.825 MHz
Sapphire 20 Jun 02:36:08 02:40:51 30° 312° (NW) 02:45:37 437.095 MHz 1200 baud AX-25 AFSK
Oscar 19 20 Jun 02:38:14 02:43:08 44° 99° (E) 02:47:59 437.125 CW, 437.150 USB
ITAMSAT 1 20 Jun 03:04:31 03:09:44 62° 102° (ESE) 03:14:53 435.822 SSB
AO-27 20 Jun 03:05:48 03:11:02 66° 102° (ESE) 03:16:13 436.795 MHz FM
UOSAT-12 20 Jun 03:14:59 03:17:36 15° 109° (ESE) 03:20:14 437.025 FM, 437.400 FM
SO-50 20 Jun 03:18:17 03:21:50 21° 319° (NW) 03:25:21 436.795 FM
Oscar 16 20 Jun 03:23:25 03:28:29 62° 288° (WNW) 03:33:31 437.025 USB, Beacon 2401.1428
AO-Echo 20 Jun 03:35:29 03:40:29 48° 99° (E) 03:45:34 ?
Uribyol 2 20 Jun 03:38:00 03:43:11 64° 288° (WNW) 03:48:18 436.500 FM
PCSat 20 Jun 03:49:03 03:50:45 11° 327° (NNW) 03:52:28 145.825 MHz
KITSAT 1 20 Jun 03:52:32 04:00:01 42° 250° (WSW) 04:07:28 435.175 FM
Uosat F 20 Jun 03:56:11 04:00:29 27° 95° (E) 04:04:44 435.120 FM
TMSAT-1 20 Jun 04:05:00 04:09:03 22° 93° (E) 04:13:05 436.925 FM
Oscar 19 20 Jun 04:18:10 04:22:13 24° 296° (WNW) 04:26:15 437.125 CW, 437.150 USB
Gurwin Techsat 1B 20 Jun 04:45:00 04:50:21 74° 103° (ESE) 04:55:39 435.225 FM
ITAMSAT 1 20 Jun 04:45:13 04:48:44 19° 299° (WNW) 04:52:15 435.822 SSB
AO-27 20 Jun 04:46:37 04:50:01 18° 299° (WNW) 04:53:25 436.795 MHz FM
UOSAT-12 20 Jun 04:52:48 04:57:16 63° 307° (NW) 05:01:48 437.025 FM, 437.400 FM
AO-Echo 20 Jun 05:14:59 05:18:58 23° 295° (WNW) 05:23:00 ?
AO-7 20 Jun 05:25:06 05:32:46 38° 98° (E) 05:40:22 29.400 - 29.500 MHz
STRAND 1 20 Jun 05:29:59 05:33:42 21° 62° (ENE) 05:37:27 ?
Uosat F 20 Jun 05:34:43 05:39:20 37° 292° (WNW) 05:43:57 435.120 FM
Saudisat 1A 20 Jun 05:34:49 05:37:34 16° 37° (NE) 05:40:18 436.775 MHz
TMSAT-1 20 Jun 05:44:08 05:49:15 49° 290° (WNW) 05:54:20 436.925 FM
MaSat-1 20 Jun 06:01:51 06:03:59 24° 249° (WSW) 06:06:09 437.345 MHz
Gurwin Techsat 1B 20 Jun 06:26:31 06:29:42 16° 300° (WNW) 06:32:52 435.225 FM
UOSAT-12 20 Jun 06:36:31 06:38:22 12° 327° (NNW) 06:40:14 437.025 FM, 437.400 FM
STRAND 1 20 Jun 07:07:30 07:12:30 54° 260° (W) 07:17:34 ?
Saudisat 1A 20 Jun 07:13:23 07:17:57 89° 58° (ENE) 07:22:24 436.775 MHz
AO-7 20 Jun 07:17:44 07:25:43 52° 297° (WNW) 07:33:41 29.400 - 29.500 MHz
JAS-1B 20 Jun 07:50:53 07:56:05 31° 97° (E) 08:01:52 435.800 - 435.900 CW/SSB
Sapphire 20 Jun 07:58:50 07:59:31 10° 31° (NNE) 08:00:13 437.095 MHz 1200 baud AX-25 AFSK
Hamsat 20 Jun 08:07:33 08:11:57 73° 102° (ESE) 08:16:17 145.90 MHz
SO-67 20 Jun 08:26:21 08:29:40 35° 97° (E) 08:32:58 435.3500 MHz FM
SO-50 20 Jun 08:28:31 08:30:43 13° 34° (NE) 08:32:53 436.795 FM
PCSat 20 Jun 09:04:55 09:09:30 27° 47° (NE) 09:14:04 145.825 MHz
AO-7 20 Jun 09:13:23 09:16:34 13° 319° (NW) 09:19:46 29.400 - 29.500 MHz
JAS-2 20 Jun 09:20:00 09:21:16 11° 86° (E) 09:22:32 435.800 - 435.900 CW/SSB, 435.910 FM
Sapphire 20 Jun 09:39:15 09:44:27 44° 53° (NE) 09:49:37 437.095 MHz 1200 baud AX-25 AFSK
JAS-1B 20 Jun 09:41:27 09:46:51 41° 292° (WNW) 09:52:54 435.800 - 435.900 CW/SSB
HO-68 20 Jun 09:42:47 09:48:50 28° 95° (E) 09:54:50 435.675 MHz FM
Hamsat 20 Jun 09:45:44 09:47:25 12° 299° (WNW) 09:49:04 145.90 MHz
Oscar 11 20 Jun 09:52:26 09:54:35 13° 90° (E) 09:56:44 145.825 FM, Beacon 2401.500 USB
SO-67 20 Jun 10:00:42 10:02:50 15° 294° (WNW) 10:04:57 435.3500 MHz FM
SO-50 20 Jun 10:07:38 10:12:11 71° 55° (NE) 10:16:39 436.795 FM
PCSat 20 Jun 10:47:57 10:53:14 52° 246° (WSW) 10:58:28 145.825 MHz
JAS-2 20 Jun 11:01:50 11:07:16 83° 285° (WNW) 11:12:25 435.800 - 435.900 CW/SSB, 435.910 FM
RS-15 20 Jun 11:10:00 11:21:02 45° 109° (ESE) 11:31:37 29.354 - 29.394 USB, Beacon 29.352 USB
OPAL 20 Jun 11:11:11 11:15:07 23° 96° (E) 11:19:03 ?
Sapphire 20 Jun 11:23:05 11:27:41 29° 251° (WSW) 11:32:15 437.095 MHz 1200 baud AX-25 AFSK
Oscar 11 20 Jun 11:26:52 11:31:11 58° 287° (WNW) 11:35:28 145.825 FM, Beacon 2401.500 USB
HO-68 20 Jun 11:29:51 11:36:52 58° 293° (WNW) 11:43:52 435.675 MHz FM
UOSAT-12 20 Jun 11:42:19 11:45:51 21° 41° (NE) 11:49:23 437.025 FM, 437.400 FM
SO-50 20 Jun 11:50:07 11:52:11 13° 252° (WSW) 11:54:15 436.795 FM
ITAMSAT 1 20 Jun 12:47:05 12:49:48 14° 59° (ENE) 12:52:31 435.822 SSB
AO-27 20 Jun 12:48:16 12:51:10 15° 59° (ENE) 12:54:04 436.795 MHz FM
OPAL 20 Jun 12:49:30 12:54:11 43° 293° (WNW) 12:58:52 ?
JAS-2 20 Jun 12:49:48 12:51:23 11° 306° (NW) 12:52:57 435.800 - 435.900 CW/SSB, 435.910 FM
Oscar 16 20 Jun 13:02:59 13:07:16 27° 65° (ENE) 13:11:34 437.025 USB, Beacon 2401.1428
Uribyol 2 20 Jun 13:18:21 13:22:43 28° 65° (ENE) 13:27:06 436.500 FM
HO-68 20 Jun 13:20:30 13:23:05 12° 313° (NW) 13:25:39 435.675 MHz FM
RS-15 20 Jun 13:21:24 13:33:09 61° 312° (NW) 13:44:26 29.354 - 29.394 USB, Beacon 29.352 USB
UOSAT-12 20 Jun 13:21:51 13:26:24 59° 240° (WSW) 13:30:56 437.025 FM, 437.400 FM

Developed and maintained by Chris Peat, Heavens-Above GmbH. Please read the updated FAQ before sending e-mail. Imprint. DLR
